Location: Maiden
(35.5760°N, 81.2120°W)
Time: 11:07:03
(UTC-04:00)

Transit 2A Rocket - All Passes

Search period start: 04 August 2020 00:00
Search period end: 14 August 2020 00:00
Orbit: 584 x 919 km, 66.7° (Epoch: 04 August)

Date Brightness Start Highest point End Pass type
(mag) Time Alt. Az. Time Alt. Az. Time Alt. Az.
04 Aug - 06:04:22 10° SE 06:07:55 17° ESE 06:11:36 10° ENE visible
04 Aug - 07:44:20 10° SW 07:49:52 61° WNW 07:55:51 10° NNE daylight
04 Aug - 09:32:26 10° NW 09:33:50 11° NW 09:35:15 10° NNW daylight
04 Aug - 14:52:22 10° NNE 14:53:21 10° NE 14:54:20 10° NE daylight
04 Aug - 16:31:26 10° NNW 16:37:21 59° ENE 16:42:48 10° SE daylight
04 Aug - 18:15:36 10° WNW 18:19:19 18° WSW 18:22:52 10° SW daylight
05 Aug - 07:01:43 10° SSW 07:07:17 80° ESE 07:13:18 10° NNE daylight
05 Aug - 08:46:56 10° W 08:50:41 17° NW 08:54:33 10° N daylight
05 Aug - 15:49:07 10° N 15:54:35 35° NE 15:59:41 10° ESE daylight
05 Aug - 17:31:59 10° NW 17:37:06 32° WSW 17:41:52 10° SSW daylight
06 Aug - 06:19:34 10° S 06:24:50 45° ESE 06:30:30 10° NE daylight
06 Aug - 08:02:53 10° WSW 08:07:41 27° NW 08:12:45 10° N daylight
06 Aug - 15:07:05 10° N 15:11:41 22° NE 15:16:02 10° E daylight
06 Aug - 16:48:57 10° NW 16:54:45 56° WSW 17:00:04 10° S daylight
07 Aug - 05:38:01 10° SSE 05:42:32 26° ESE 05:47:18 10° NE visible
07 Aug - 07:19:27 10° SW 07:24:50 43° WNW 07:30:35 10° NNE daylight
07 Aug - 14:25:33 10° NNE 14:28:37 14° NE 14:31:35 10° ENE daylight
07 Aug - 16:06:15 10° NNW 16:12:15 84° ENE 16:17:44 10° SSE daylight
07 Aug - 17:52:13 10° W 17:53:54 11° W 17:55:31 10° WSW daylight
08 Aug - 04:57:32 10° SE 05:00:20 14° ESE 05:03:14 10° ENE visible
08 Aug - 06:36:32 10° SSW 06:42:08 74° WNW 06:48:11 10° NNE daylight
08 Aug - 08:23:19 10° WNW 08:25:54 13° NW 08:28:32 10° NNW daylight
08 Aug - 15:23:48 10° NNW 15:29:35 49° ENE 15:34:55 10° SE daylight
08 Aug - 17:07:27 10° WNW 17:11:45 22° WSW 17:15:47 10° SSW daylight
09 Aug - 05:54:04 10° SSW 05:59:36 66° ESE 06:05:34 10° NNE visible
09 Aug - 07:38:35 10° W 07:42:48 20° NW 07:47:11 10° N daylight
09 Aug - 14:41:36 10° N 14:46:46 30° NE 14:51:37 10° ESE daylight
09 Aug - 16:24:06 10° NW 16:29:28 38° WSW 16:34:27 10° S daylight
10 Aug - 05:12:06 10° S 05:17:12 37° ESE 05:22:39 10° NE visible
10 Aug - 06:54:46 10° WSW 06:59:51 32° NW 07:05:14 10° N daylight
10 Aug - 13:59:42 10° N 14:03:48 19° NE 14:07:44 10° E daylight
10 Aug - 15:41:11 10° NNW 15:47:04 69° WSW 15:52:26 10° SSE daylight
11 Aug - 04:30:49 10° SSE 04:34:56 21° ESE 04:39:15 10° ENE visible
11 Aug - 06:11:32 10° SW 06:17:04 52° WNW 06:22:59 10° NNE visible
11 Aug - 13:18:33 10° NNE 13:20:41 12° NE 13:22:46 10° ENE daylight
11 Aug - 14:58:35 10° NNW 15:04:31 69° ENE 15:09:56 10° SE daylight
11 Aug - 16:43:25 10° WNW 16:46:19 14° WSW 16:49:07 10° SW daylight
12 Aug - 03:51:12 10° ESE 03:52:47 11° E 03:54:22 10° E visible
12 Aug - 05:28:46 10° SSW 05:34:25 88° WNW 05:40:31 10° NNE visible
12 Aug - 07:14:39 10° W 07:17:58 15° NW 07:21:24 10° N daylight
12 Aug - 14:16:13 10° NNW 14:21:48 41° NE 14:26:58 10° SE daylight
12 Aug - 15:59:25 10° NW 16:04:08 26° WSW 16:08:33 10° SSW daylight
13 Aug - 04:46:28 10° S 04:51:56 54° ESE 04:57:48 10° NE visible
13 Aug - 06:30:19 10° WSW 06:34:57 24° NW 06:39:45 10° N daylight
13 Aug - 13:34:05 10° N 13:38:56 25° NE 13:43:29 10° ESE daylight
13 Aug - 15:16:14 10° NW 15:21:50 47° WSW 15:26:56 10° S daylight
